Flag for U.S.A. Weather past 2 weeks in Jackson, Wyoming, U.S.A.

Now
25 °F

Sunny.


Feels Like: 25 °F
Forecast: 6 / 32 °F
Wind: No wind

Location: Jackson Hole

Current Time: Mar 1, 2015 at 5:06:59 PM

Latest Report: Mar 1, 2015 at 3:51 PM


Visibility: 10 mi

Pressure: 30.05 "Hg

Humidity: 59%

Dew point: 12 °F

Location of JacksonLocation

Historic Weather in Jackson — Graph

°F

Jackson temperature yesterday

Maximum temperature yesterday: 27 °F (at 4:53 PM)
Minimum temperature yesterday: 9 °F (at 3:15 AM)
Average temperature yesterday: 13 °F

Past Weeks' High & Low Weather Summary

 TemperatureHumidityPressure
High45 °F (Feb 19, 2:51 PM)100% (Feb 15, 3:15 AM)30.30 "Hg (Feb 15, 3:15 AM)
Low-9 °F (Feb 23, 5:15 AM)32% (Feb 23, 4:51 PM)29.71 "Hg (Feb 27, 3:51 PM)
Average17 °F76%30.06 "Hg
* Reported Feb 14 3:03 PM — Mar 1 3:51 PM, Jackson, Weather by CustomWeather, © 2015

Note: Actual official high and low records may vary slightly from our data, if they occured in-between our weather recording intervals... More about our weather records

Advertising

Jackson weather history for previous 24 hours

 ConditionsComfort  
Time TempWeatherWind HumidityBarometerVisibility
3:51 PM
Sun, Mar 1
25 °FSunny.No wind59%30.05 "Hg10 mi
2:51 PM21 °FSunny.No wind63%30.07 "Hg10 mi
1:51 PM21 °FSunny.No wind63%30.10 "Hg10 mi
12:51 PM18 °FSunny.No wind62%30.13 "Hg10 mi
11:53 AM12 °FSunny.No wind79%30.16 "Hg10 mi
9:51 AM5 °FSunny.9 mph78%30.17 "Hg10 mi
8:51 AM0 °FSunny.3 mph84%30.17 "Hg10 mi
7:51 AM-2 °FSunny.13 mph84%30.15 "Hg10 mi
6:51 AM-2 °FClear.8 mph84%30.13 "Hg10 mi
6:35 AM0 °FClear.8 mph84%30.13 "Hg10 mi
6:15 AM0 °FClear.7 mph92%30.13 "Hg10 mi
5:55 AM0 °FClear.7 mph92%30.12 "Hg10 mi
5:35 AM0 °FClear.No wind92%30.11 "Hg10 mi
5:15 AM1 °FClear.14 mph85%30.09 "Hg10 mi
4:55 AM0 °FClear.18 mph92%30.08 "Hg10 mi
4:35 AM1 °FClear.17 mph92%30.08 "Hg10 mi
4:15 AM3 °FClear.18 mph85%30.07 "Hg10 mi
3:55 AM3 °FClear.17 mph85%30.06 "Hg10 mi
3:35 AM5 °FClear.17 mph85%30.06 "Hg10 mi
3:15 AM3 °FClear.17 mph85%30.05 "Hg10 mi
2:55 AM5 °FClear.20 mph85%30.04 "Hg10 mi
2:35 AM7 °FClear.15 mph78%30.04 "Hg10 mi
2:15 AM7 °FClear.16 mph78%30.04 "Hg10 mi
1:55 AM9 °FClear.14 mph78%30.03 "Hg10 mi
1:35 AM9 °FClear.16 mph78%30.02 "Hg10 mi
1:15 AM10 °FClear.15 mph72%30.01 "Hg10 mi
12:55 AM10 °FClear.13 mph79%30.00 "Hg10 mi
12:35 AM10 °FClear.14 mph72%29.99 "Hg10 mi
12:15 AM10 °FClear.17 mph72%29.98 "Hg10 mi
11:55 PM
Sat, Feb 28
10 °FPassing clouds.12 mph72%29.97 "Hg10 mi
11:35 PM10 °FClear.10 mph79%29.97 "Hg10 mi
11:15 PM10 °FClear.12 mph79%29.96 "Hg10 mi
10:55 PM14 °FClear.10 mph73%29.95 "Hg10 mi
10:15 PM9 °FClear.6 mph85%29.93 "Hg10 mi
9:55 PM10 °FClear.12 mph85%29.92 "Hg10 mi
9:35 PM10 °FClear.7 mph85%29.91 "Hg10 mi
9:15 PM10 °FClear.9 mph85%29.90 "Hg10 mi
8:55 PM9 °FClear.9 mph85%29.89 "Hg10 mi
7:51 PM9 °FPassing clouds.7 mph85%29.86 "Hg10 mi
6:51 PM18 °FClear.No wind73%29.84 "Hg10 mi
5:51 PM21 °FSunny.No wind68%29.81 "Hg10 mi
Weather by CustomWeather, © 2015

See weather overviewHow to use our weather pages